Location: Arrien
(42.8963°N, 1.0429°E)
Time: 17:46:42
(UTC+00:00)

ARIANE 6 FM1 Upper Stage - Visible Passes

Search period start: 14 February 2026 00:00
Search period end: 24 February 2026 00:00
Orbit: 522 x 609 km, 62.0° (Epoch: 13 February)

Date Brightness Start Highest point End Pass type
(mag) Time Alt. Az. Time Alt. Az. Time Alt. Az.
14 Feb 3.8 19:18:57 10° NNW 19:21:31 29° N 19:21:31 29° N visible
15 Feb 3.0 19:18:48 10° NNW 19:22:03 46° NNE 19:22:03 46° NNE visible
16 Feb 2.3 19:18:43 10° NW 19:22:40 77° NE 19:22:43 77° ENE visible
17 Feb 2.7 19:18:41 10° NW 19:22:38 71° SW 19:23:33 49° SSE visible
18 Feb 3.5 19:18:44 10° NW 19:22:32 46° WSW 19:24:37 23° S visible
19 Feb 4.3 19:18:54 10° WNW 19:22:24 30° WSW 19:25:55 10° S visible
20 Feb 5.1 19:19:14 10° WNW 19:22:13 21° WSW 19:25:13 10° SSW visible
21 Feb 5.6 19:19:56 10° W 19:22:00 14° WSW 19:24:05 10° SW visible
